Location: Chochol
(49.7771°N, 14.9780°E)
Time: 22:44:38
(UTC+00:00)

STARLINK-1225 - Pass Details

Date: 09 April 2020
Orbit: 549 x 550 km, 53.0° (Epoch: 29 May)

Event Time Altitude Azimuth Distance (km) Brightness Sun altitude
Rises 19:11:54 0° 292° (WNW) 2,727 9.0 -13.8°
Reaches altitude 10° 19:14:08 10° 291° (WNW) 1,831 7.7 -14.1°
Maximum altitude 19:18:18 82° 206° (SSW) 562 3.6 -14.7°
Enters shadow 19:20:27 28° 120° (ESE) 1,063 4.5 -15.0°
